Regional Weather Roundup
Issued by NWS Grand Forks, ND

Home | Current Version | Previous Version | Text Only | Print | Product List | Glossary On
Versions: 1 2 3 4 5 6 7 8 9 10 11 12 13 14 15 16 17 18 19 20 21 22 23 24 25 26 27 28 29 30 31 32 33 34 35 36 37 38 39 40 41 42 43 44 45 46 47 48 49 50
000
ASUS43 KFGF 231210
RWRFGF
PRAIRIE TO PINES  WEATHER ROUNDUP
NATIONAL WEATHER SERVICE EASTERN NORTH DAKOTA/GRAND FORKS ND
700 AM CDT SUN APR 23 2017

 **SATELLITE DATA USED TO AUGMENT SKY COVER AT AUTOMATED STATIONS**
 *****  WEATHER ACROSS EASTERN NORTH DAKOTA  *****

CITY           SKY/WX    TMP DP  RH WIND       PRES   REMARKS
GRAND FORKS    CLOUDY    33  24  69 NE12      30.22F WCI  24
6HR MIN TEMP:  32; 6HR MAX TEMP:  35;

GRAND FRKS AFB CLOUDY    30  21  67 E10       30.23R WCI  21
DEVILS LAKE    CLOUDY    28  20  71 E15G24    30.18F WCI  16
6HR MIN TEMP:  28; 6HR MAX TEMP:  32; 6HR PCP: TRACE;

FARGO          LGT SNOW  33  32  96 NE14      30.15F VSB 1   WCI  23
WAHPETON ARPT  CLOUDY    39  34  81 NE9       30.11F
$$

 ***** WEATHER ACROSS CENTRAL AND WESTERN NORTH DAKOTA  *****

CITY           SKY/WX    TMP DP  RH WIND       PRES   REMARKS
BISMARCK       CLOUDY    33  24  69 E23G30    30.07F WCI  21
6HR MIN TEMP:  33; 6HR MAX TEMP:  38;

MINOT          FLURRIES  30  16  56 E18       30.13F WCI  18
6HR MIN TEMP:  30; 6HR MAX TEMP:  33; 6HR PCP:  0.01;

JAMESTOWN      CLOUDY    29  26  89 NE17      30.12F WCI  17
6HR MIN TEMP:  29; 6HR MAX TEMP:  34; 6HR PCP: TRACE;

MINOT AFB      CLOUDY    29  18  63 E15       30.13F WCI  18
GARRISON         N/A     27  25  92 E23G30    30.10R WCI  12
WILLISTON      CLOUDY    33  27  78 E12G23    30.05F WCI  24
6HR MIN TEMP:  33; 6HR MAX TEMP:  38;

DICKINSON      CLOUDY    31  29  92 E23       29.96S WCI  18
6HR MIN TEMP:  31; 6HR MAX TEMP:  36;

HETTINGER      CLOUDY    33  32  96 E18       29.94F FOG     WCI  22
6HR MIN TEMP:  33; 6HR MAX TEMP:  43;

$$

 *****  OTHER AIRPORT OBSERVATIONS IN OUR AREA  *****

CITY           SKY/WX    TMP DP  RH WIND       PRES   REMARKS
WALHALLA       NOT AVBL
GRAFTON AIRPOR FAIR      28  21  74 NE12      30.27R WCI  18
VALLEY CITY AR DRIZZLE   27  27 100 NE16G24   30.15F WCI  14
CANDO          NOT AVBL
CAVALIER APRT  FAIR      27  21  80 NE7       30.25F WCI  19
GWINNER        CLOUDY    34  32  93 MISG      30.10S
SHEYENNE NWR     N/A     32  30  93 NE13      29.95S WCI  22
ROLLA          CLOUDY    25  16  68 E13       30.20S WCI  13
 ***** THE ABOVE OBSERVATIONS ARE NON NWS ARE NOT QUALITY
       CONTROLLED AND MAY MIS-REPORT RAIN FOR SNOW...
$$

  *****  WEATHER ACROSS NORTHERN MINNESOTA  *****

CITY           SKY/WX    TMP DP  RH WIND       PRES   REMARKS
FLAG ISLAND    NOT AVBL
WARROAD        FAIR      30  16  55 NE14      30.26F WCI  20
ROSEAU         FAIR      27  21  80 NE8       30.25F WCI  18
HALLOCK        FAIR      28  19  69 E7        30.26S WCI  21
THF RVR FALLS  CLOUDY    30  24  78 NE15      30.22S WCI  19
6HR MIN TEMP:  30; 6HR MAX TEMP:  32;

BAUDETTE       FAIR      27  16  63 NE8       30.25S WCI  19
6HR MIN TEMP:  27; 6HR MAX TEMP:  34;

WASKISH        MOCLDY    28  25  86 NE9       30.24R WCI  20
CROOKSTON      FAIR      32  27  80 E12       30.22F WCI  23
STEPHEN NDAWN    N/A     28  21  74 NE10        N/A  WCI  19
GREENBUSH NDAW   N/A     28  21  74 NE9         N/A  WCI  20
$$
  *****  WEATHER ACROSS CENTRAL AND WEST MINNESOTA  *****

CITY           SKY/WX    TMP DP  RH WIND       PRES   REMARKS
FOSSTON        CLOUDY    30  28  93 NE9       30.20R WCI  22
BEMIDJI        CLOUDY    32  25  75 NE13      30.19R WCI  22
PARK RAPIDS    FLURRIES  33  28  81 NE14      30.15F WCI  23
6HR MIN TEMP:  33; 6HR MAX TEMP:  41; 6HR PCP:  0.01;

ELBOW LAKE     PTSUNNY   40  37  88 NE14      30.09F
6HR MIN TEMP:  40; 6HR MAX TEMP:  47;

WADENA         CLOUDY    36  32  87 NE12      30.14S
DETROIT LAKES  CLOUDY    34  32  93 NE9       30.16S
MOORHEAD       RAIN      34  30  86 NE14      30.16F WCI  24
FERGUS FALLS   MOCLDY    39  34  81 E17G25    30.10F
MORRIS MN      FAIR      41  37  87 E9        30.08S
STAPLES        CLOUDY    36  32  87 NE7G16    30.14F
$$
  *****  WEATHER ELSEWHERE ACROSS MINNESOTA  *****

CITY           SKY/WX    TMP DP  RH WIND       PRES   REMARKS
DULUTH         LGT SNOW  34  32  92 NE12      30.17R VSB 3/4
6HR MIN TEMP:  34; 6HR MAX TEMP:  45; 6HR PCP:  0.07;

INTRNTL FALLS  FAIR      28  16  60 N8        30.24S WCI  20
6HR MIN TEMP:  28; 6HR MAX TEMP:  34;

ELY            MOCLDY    28  19  69 NE6G18    30.21R WCI  22
CLOQUET        LGT SNOW  34  30  86 NE6       30.16S
WHEATON        FAIR      41  36  81 NE8       30.11F
BRAINERD       CLOUDY    37  34  89 N13       30.16R
6HR MIN TEMP:  37; 6HR MAX TEMP:  48; 6HR PCP: TRACE;

HIBBING        CLOUDY    29  25  85 NE12      30.20R WCI  19
6HR MIN TEMP:  29; 6HR MAX TEMP:  38; 6HR PCP:  0.11;

ALEXANDRIA     MOCLDY    41  36  82 NE14      30.11S
6HR MIN TEMP:  41; 6HR MAX TEMP:  50;

SAINT CLOUD    CLOUDY    44  37  76 NE9       30.11R
6HR MIN TEMP:  44; 6HR MAX TEMP:  51;

MINNEAPOLIS    FAIR      49  36  61 W3        30.09R
6HR MIN TEMP:  49; 6HR MAX TEMP:  55;

$$

  *****  WEATHER ACROSS SOUTH DAKOTA  *****

CITY           SKY/WX    TMP DP  RH WIND       PRES   REMARKS
SIOUX FALLS    FAIR      47  35  63 SW7       30.08S
6HR MIN TEMP:  46; 6HR MAX TEMP:  52;

BROOKINGS      FAIR      44  34  67 S8        30.06F
WATERTOWN      FAIR      33  31  92 NE5       30.05S
6HR MIN TEMP:  33; 6HR MAX TEMP:  49;

HURON          FAIR      38  35  89 SE5       30.03R
6HR MIN TEMP:  35; 6HR MAX TEMP:  49;

SISSETON         N/A     38  37  97 NE10      30.08F
ABERDEEN       CLOUDY    35  32  88 NE17      30.06F WCI  25
6HR MIN TEMP:  34; 6HR MAX TEMP:  40;

MITCHELL       FAIR      48  35  60 S12       30.04F
PIERRE         FAIR      46  32  58 S7        29.94F
6HR MIN TEMP:  44; 6HR MAX TEMP:  54;

MOBRIDGE       FAIR      35  30  82 E17G26    29.97R WCI  25
RAPID CITY     FAIR      43  33  68 SE9       29.86F
6HR MIN TEMP:  40; 6HR MAX TEMP:  46;

$$

  *****  SOME WEATHER IN NEARBY STATES *****

CITY           SKY/WX    TMP DP  RH WIND       PRES   REMARKS
GLASGOW MT     CLOUDY    36  31  82 E26G33    29.90S
6HR MIN TEMP:  36; 6HR MAX TEMP:  41; 6HR PCP: TRACE;

GREAT FALLS MT CLOUDY    39  38  96 NW6       29.79F
6HR MIN TEMP:  38; 6HR MAX TEMP:  46;

CHEYENNE WY    FAIR      34  28  79 W3        30.00F
6HR MIN TEMP:  32; 6HR MAX TEMP:  40;

SCOTTSBLUFF NE FAIR      41  32  70 SE9       29.98F
6HR MIN TEMP:  38; 6HR MAX TEMP:  49;

OMAHA NE       FAIR      41  35  79 SE3       30.17R
6HR MIN TEMP:  40; 6HR MAX TEMP:  47;

DES MOINES IA  FAIR      44  32  62 CALM      30.16R
6HR MIN TEMP:  44; 6HR MAX TEMP:  50;

DAVENPORT IA     N/A     37  33  85 CALM      30.16R
6HR MIN TEMP:  34; 6HR MAX TEMP:  43;

CHICAGO IL     FAIR      41  31  67 W3        30.14R
6HR MIN TEMP:  37; 6HR MAX TEMP:  43;

EAU CLAIRE WI  FAIR      43  36  76 CALM      30.07R
6HR MIN TEMP:  43; 6HR MAX TEMP:  47;

LA CROSSE WI   FAIR      48  40  73 S8        30.10R
6HR MIN TEMP:  46; 6HR MAX TEMP:  50;

$$

  *****  SOME NATIONAL WEATHER *****

CITY           SKY/WX    TMP DP  RH WIND       PRES   REMARKS
LA GUARDIA NY  FAIR      51  35  54 NE6       30.12R
6HR MIN TEMP:  48; 6HR MAX TEMP:  51;

RALEIGH NC     CLOUDY    54  52  93 NE9       30.00F
6HR MIN TEMP:  54; 6HR MAX TEMP:  55; 6HR PCP:  0.20;

ATLANTA GA     PTSUNNY   62  59  90 E10       29.84S
6HR MIN TEMP:  62; 6HR MAX TEMP:  66; 6HR PCP:  0.01;

NEW ORLEANS LA CLOUDY    65  58  78 NW8       29.91R
6HR MIN TEMP:  65; 6HR MAX TEMP:  69; 6HR PCP: TRACE;

OKLAHOMA CITY  FAIR      41  37  86 NW8       30.18R
6HR MIN TEMP:  41; 6HR MAX TEMP:  48;

ALBUQUERQUE NM FAIR      47  29  49 NE7       30.21S
6HR MIN TEMP:  47; 6HR MAX TEMP:  49;

SALT LAKE CITY MOCLDY    50  35  56 CALM      29.87F
6HR MIN TEMP:  48; 6HR MAX TEMP:  53;

LOS ANGELES CA FAIR      59  55  87 S3        29.83S
6HR MIN TEMP:  58; 6HR M


USA.gov is the U.S. government's official web portal to all federal, state and local government web resources and services.